SCP
0 0 0 0 0 0 0 0 0 -0 -0 -0 -0 -0 -0 -0 -0 -0 -0 -0 -0 -0 -0 -0 -0 -0 -0 -0 -0 -0 -0 -0 -0 -0 -0 -0 -0 -0 -0 -0 -0 -0 -0
0 0 0 0 0 0 0 0 0 0 -0 -0 -0 -0 -0 -0 -0 -0 -0 -0 -0 -0 -0 -0 -0 -0 -0 -0 -0 -0 -0 -0 -0 -0 -0 -0 -0 -0 -0 -0 -0 -0 -0
0 0 0 0 0 0 0 0 0 0 -0 -0 -0 -0 -0 -0 -0 -0 -0 -0 -0 -0 -0 -0 -0 -0 -0 -0 -0 -0 -0 -0 -0 -0 -0 -0 -0 -0 -0 -0 -0 -0 -0
-0 0 0 0 0 0 0 0 0 0 -0 -0 -0 -0 -0 -0 -0 -0 -0 -0 -0 -0 -0 -0 -0 -0 -0 -0 -0 -0 -0 -0 -0 -0 -0 -0 -0 -0 -0 -0 -0 -0 -0
-0 -0 -0 -0 -0 -0 0 0 0 0 0 -0 -0 -0 -0 -0 -0 -0 -0 -0 -0 -0 -0 -0 -0 -0 -0 -0 -0 -0 -0 -0 -0 -0 -0 -0 -0 -0 -0 -0 -0 -0 -0
-0 -0 -0 -0 -0 -0 -0 0 0 -0 -0 -0 -0 -0 -0 -0 -0 -0 -0 -0 -0 -0 -0 -0 -0 -0 -0 -0 -0 -0 -0 -0 -0 -0 -0 -0 -0 -0 -0 -0 -0 -0 -0
-0 -0 -0 -0 -0 -0 -0 -0 -0 0 -0 -0 -0 -0 -0 -0 -0 -0 -0 -0 -0 -0 -0 -0 -0 -0 -0 -0 -0 -0 -0 -0 -0 -0 -0 -0 -0 -0 -0 -0 -0 -0 -0
-0 -0 -0 -0 -0 -0 -0 -0 -0 -0 -0 -0 -0 -0 -0 -0 -0 -0 -0 -0 -0 -0 -0 -0 -0 -0 -0 -0 -0 -0 0 0 0 -0 0 0 -0 -0 -0 -0 -0 -0 -0
-0 -0 -0 -0 -0 -0 -0 -0 -0 -0 -0 -0 -0 -0 -0 -0 -0 -0 -0 -0 -0 -0 -0 -0 -0 -0 -0 -0 -0 -0 0 0 0 0 0 0 -0 -0 -0 -0 0 0 0
-0 -0 -0 -0 -0 -0 -0 -0 -0 -0 -0 -0 -0 -0 -0 -0 -0 -0 -0 -0 -0 -0 -0 -0 -0 -0 -0 -0 0 0 0 0 0 0 0 0 0 0 -0 0 0 0 0
-0 -0 -0 -0 -0 -0 -0 -0 0 0 -0 -0 -0 -0 -0 -0 -0 -0 -0 -0 -0 -0 -0 -0 0 0 0 0 0 0 0 0 0 0 0 0 0 0 0 0 0 0 0
-0 -0 -0 -0 -0 -0 -0 -0 -0 -0 -0 -0 -0 -0 -0 -0 -0 -0 -0 -0 -0 -0 0 0 0 0 0 0 0 0 0 0 0 0 0 0 0 0 0 0 0 0 0
-0 -0 -0 -0 -0 -0 -0 -0 0 0 -0 -0 -0 -0 -0 -0 -0 0 0 0 0 0 0 0 0 0 0 0 0 0 0 0 0 0 0 0 0 0 0 0 0 0 0
-0 -0 -0 -0 -0 -0 -0 -0 -0 -0 -0 -0 -0 -0 0 0 0 0 0 0 0 0 0 0 0 0 0 0 0 0 0 0 0 0 0 0 0 0 0 0 0 0 0
-0 -0 -0 -0 -0 -0 -0 -0 0 0 0 0 0 -0 0 0 0 0 0 0 0 0 0 0 0 0 0 0 0 0 0 0 0 0 0 0 0 0 0 0 0 0 0
-0 -0 -0 -0 -0 -0 -0 -0 -0 0 0 0 0 0 0 0 0 0 0 0 0 0 0 0 0 0 0 0 0 0 0 0 0 0 0 0 0 0 0 0 0 0 0
-0 -0 -0 -0 -0 -0 -0 -0 0 -0 0 0 0 0 0 0 0 0 0 0 0 0 0 0 0 0 0 0 0 0 0 0 0 0 0 0 0 0 0 0 0 0 0
0 0 -0 0 -0 -0 -0 0 0 0 -0 0 0 0 -0 0 0 0 0 0 0 0 0 0 0 0 0 0 0 0 0 0 0 0 0 0 0 0 0 0 0 0 0
0 0 0 -0 -0 -0 0 0 0 0 0 0 0 0 0 0 0 0 0 0 0 0 0 0 0 0 0 0 0 0 0 0 0 0 0 0 0 0 0 0 0 0 0
0 0 0 0 0 0 0 0 0 0 0 0 0 0 0 0 0 0 0 0 0 0 0 0 0 0 0 0 0 0 0 0 0 0 0 0 0 0 0 0 0 0 0
0 0 0 0 0 0 0 0 0 0 0 0 0 0 0 0 0 0 0 0 0 0 0 0 0 0 0 0 0 0 0 0 0 0 0 0 0 0 0 0 0 0 0
0 0 0 0 0 0 0 0 0 0 0 0 0 0 0 0 0 0 0 0 0 0 0 0 0 0 0 0 0 0 0 0 0 0 0 0 0 0 0 0 0 0 0
0 0 0 0 0 0 0 0 0 0 0 0 0 0 0 0 0 0 0 0 0 0 0 0 0 0 0 0 0 0 0 0 0 0 0 0 0 0 0 0 0 0 0
0 0 0 0 0 0 0 0 0 0 0 0 0 0 0 0 0 0 0 0 0 0 0 0 0 0 0 0 0 0 0 0 0 0 0 0 0 0 0 0 0 0 0
0 0 0 0 0 0 0 0 0 0 0 0 0 0 0 0 0 0 0 0 0 0 0 0 0 0 0 0 0 0 0 0 0 0 0 0 0 0 0 0 0 0 0
0 0 0 0 0 0 0 0 0 0 0 0 0 0 0 0 0 0 0 0 0 0 0 0 0 0 0 0 0 0 0 0 0 0 0 0 0 0 0 0 0 0 0
Wind_Speed_500mb
33 31 25 17 12 12 14 16 19 20 15 15 18 22 24 27 29 30 32 29 22 23 26 28 29 28 31 35 38 37 37 39 41 44 44 43 45 46 46 44 42 41 38
37 32 27 16 14 14 17 18 20 22 17 15 19 22 29 30 31 30 35 26 22 31 31 31 32 33 33 32 33 34 38 40 42 50 47 46 44 41 38 35 34 35 36
37 34 27 20 17 16 17 18 20 23 19 15 18 23 30 33 32 37 34 27 27 33 32 32 30 27 25 23 25 29 33 35 35 36 37 34 31 25 27 32 32 27 29
36 34 26 22 18 17 17 18 19 21 21 18 18 23 27 31 30 35 31 24 29 31 33 32 29 28 25 23 23 24 23 22 23 32 32 31 30 27 28 28 26 27 27
35 33 27 23 19 17 17 16 17 19 25 15 13 22 21 25 27 32 32 28 30 33 32 33 31 28 27 26 27 26 24 22 30 34 32 31 27 20 23 31 30 28 27
36 31 28 25 21 19 17 16 17 20 25 14 7 20 20 20 21 27 35 24 32 25 32 33 30 30 28 30 35 35 34 31 36 35 34 32 29 21 19 21 22 19 23
35 32 30 26 23 20 18 16 16 20 22 15 5 17 17 18 18 23 28 27 28 24 27 34 31 30 30 33 33 32 28 27 29 30 30 27 20 18 16 18 14 14 31
35 34 32 28 24 21 19 17 16 18 20 17 6 12 15 16 16 21 22 26 22 22 26 28 29 28 30 29 28 23 19 22 25 24 22 17 9 7 10 12 22 27 30
36 35 34 30 28 24 20 18 17 18 19 14 7 8 11 13 15 17 16 19 22 23 23 25 23 22 22 22 20 20 20 20 24 25 22 21 16 14 13 12 22 28 29
37 37 36 33 31 28 25 21 19 18 16 13 8 7 7 9 12 14 13 16 19 19 19 19 19 18 17 15 15 13 13 16 23 23 23 20 17 13 10 19 23 23 27
42 41 39 37 34 31 28 25 22 19 16 13 9 8 6 8 11 13 13 14 15 16 16 15 15 14 12 11 8 5 8 17 19 19 16 8 5 9 17 21 21 24 26
48 48 45 41 38 35 32 28 26 23 19 17 13 11 9 8 11 13 13 12 13 15 16 14 12 11 10 10 8 3 7 16 19 19 14 9 10 7 11 18 19 25 28
48 48 48 46 43 40 37 34 31 28 25 22 18 16 13 11 13 15 15 13 13 14 13 12 9 8 8 8 9 12 10 16 17 16 15 15 12 15 17 13 22 19 24
49 46 47 48 47 45 42 39 35 32 30 26 23 20 17 14 15 17 16 15 16 14 12 8 6 6 6 8 11 6 8 11 13 13 9 5 13 10 18 12 20 20 19
46 45 45 47 49 49 49 46 42 39 35 31 27 24 21 19 18 20 21 19 17 14 12 8 6 5 5 7 9 4 4 4 5 6 2 13 15 11 11 16 17 20 19
44 43 41 44 45 47 50 50 47 44 41 37 34 30 27 24 22 23 24 22 20 17 14 13 10 9 8 9 10 8 11 10 8 5 2 8 7 11 13 10 14 16 17
45 44 44 44 45 45 45 49 48 46 46 45 41 37 34 31 28 28 28 26 24 22 19 17 16 14 14 16 18 18 19 18 17 14 12 11 15 15 12 17 14 14 17
47 49 47 48 49 49 48 45 44 45 40 40 51 47 42 38 35 34 33 32 30 28 25 23 20 22 23 24 25 24 25 25 25 24 22 20 20 22 23 21 20 22 20
50 53 54 54 56 55 54 52 48 47 46 42 39 45 48 46 43 41 39 40 37 34 34 31 30 31 32 34 33 34 33 32 33 34 33 32 29 31 32 28 29 30 25
51 56 59 59 60 60 62 62 59 56 53 54 49 46 43 48 51 48 46 43 47 44 43 44 38 43 39 38 42 42 41 42 42 45 43 42 41 40 39 39 38 38 37
51 57 66 68 64 68 70 74 72 68 64 62 58 55 51 50 53 56 53 52 53 53 54 53 52 48 50 49 48 50 52 56 54 55 54 55 53 53 50 49 47 44 44
60 63 64 71 70 71 73 72 76 72 69 67 64 65 64 53 58 53 59 60 59 61 64 63 64 63 63 63 60 56 48 60 67 65 66 66 66 63 61 60 58 54 54
42 56 66 68 69 71 73 70 72 70 73 74 70 68 69 59 60 61 62 62 68 71 71 72 72 75 76 71 69 61 27 42 45 54 65 73 73 71 69 69 67 64 61
36 41 48 56 61 67 66 70 73 76 74 77 75 71 67 59 63 65 68 67 77 74 80 80 84 86 85 84 83 85 88 63 39 36 52 55 66 72 70 72 75 71 71
8 17 27 37 40 51 60 63 66 70 73 71 65 63 67 59 63 61 71 66 70 75 80 92 96 93 96 99 96 98 94 94 93 78 51 56 65 71 67 68 73 73 75
14 8 6 15 22 33 44 49 56 63 66 68 69 66 65 62 58 61 58 63 73 76 76 82 89 103 111 106 111 104 106 109 101 109 98 84 84 82 72 74 71 79 75
Wind_Direction_500mb
168 164 150 145 131 126 119 107 104 108 98 77 68 72 85 97 94 86 81 94 87 104 108 96 110 115 108 103 100 96 96 98 97 93 94 93 95 97 94 92 87 84 80
166 163 159 150 137 125 117 107 107 113 103 84 69 75 92 105 100 94 91 95 88 95 107 99 109 110 109 105 105 102 97 96 100 101 97 95 93 93 86 82 82 85 88
167 165 163 150 142 128 114 110 109 115 115 95 76 82 96 109 102 98 99 100 92 97 101 107 108 112 113 114 111 107 107 104 101 103 95 90 87 85 84 90 90 86 94
166 165 163 153 145 131 117 111 111 115 121 92 84 80 93 105 109 108 103 105 95 92 96 103 106 105 104 104 106 109 111 107 109 97 87 87 86 97 105 108 106 94 90
169 167 162 157 150 140 127 118 113 112 117 109 80 72 83 98 106 103 105 91 88 95 91 92 96 99 100 101 101 104 108 105 100 87 87 88 96 99 107 106 109 105 97
170 171 167 163 157 148 138 130 122 122 119 133 81 68 76 94 104 98 103 101 89 88 97 95 93 94 98 102 104 104 107 107 88 86 91 101 96 96 99 100 108 106 97
170 172 171 167 163 156 150 143 132 132 129 138 119 61 77 94 99 94 112 118 117 112 98 102 96 97 100 102 105 105 105 103 92 92 90 100 101 98 98 97 98 106 104
177 174 176 171 170 165 162 155 145 142 131 155 149 77 78 95 99 96 109 123 119 110 107 110 111 113 113 107 105 102 100 95 85 86 91 92 112 112 123 107 108 112 115
184 181 181 179 175 172 171 166 159 155 150 165 150 97 78 94 99 99 108 119 112 104 107 109 111 118 110 107 102 102 91 72 79 84 88 90 100 104 108 108 115 109 111
191 190 188 187 183 181 180 176 172 170 170 169 166 126 97 104 107 110 117 120 120 113 112 108 108 114 113 105 99 81 58 64 84 89 92 109 106 111 113 114 119 119 114
196 199 197 195 194 190 191 187 183 184 180 181 178 160 151 146 136 133 132 131 129 123 117 113 110 111 114 117 119 72 52 90 88 98 102 84 93 104 119 121 120 119 123
199 201 203 203 203 201 200 199 197 195 195 196 194 191 188 176 163 160 150 147 139 130 129 123 123 127 137 149 153 136 113 101 100 99 92 41 103 127 123 128 125 126 120
203 208 208 208 210 209 209 208 208 206 205 204 204 205 205 201 187 182 172 163 150 139 139 134 132 141 150 156 155 139 127 115 110 103 92 126 122 126 136 152 121 128 124
207 210 214 214 215 215 216 216 217 218 215 213 213 213 213 215 206 197 190 179 170 163 161 155 148 152 150 150 144 143 136 135 133 117 111 143 133 154 137 140 142 141 137
215 211 215 220 220 220 220 220 221 222 223 222 219 219 218 218 217 208 203 196 190 188 185 192 187 188 173 163 157 150 177 184 150 157 76 138 152 163 156 168 158 155 158
223 218 216 218 222 223 226 226 226 227 228 228 225 223 222 221 220 215 211 209 207 206 210 208 213 214 211 198 196 202 217 227 242 252 265 186 195 209 183 187 166 178 167
230 226 222 223 223 225 227 228 230 229 233 235 231 227 224 222 221 216 215 215 217 218 220 227 229 226 225 221 221 225 225 229 238 247 257 240 226 247 224 205 212 203 195
238 234 229 227 229 230 230 230 230 230 233 236 235 230 227 225 222 219 216 217 218 219 224 231 236 240 239 236 235 238 243 244 242 245 251 247 246 241 251 247 226 216 219
239 241 237 233 233 234 234 235 234 231 236 238 239 236 229 228 226 225 223 225 224 231 236 241 244 250 244 244 245 247 247 250 256 254 252 250 248 245 245 250 252 249 241
243 242 242 240 238 237 239 240 238 235 235 238 240 243 241 233 229 229 230 235 236 238 243 244 241 247 247 249 253 254 254 258 254 259 257 253 255 252 251 244 247 252 250
242 239 239 239 236 236 235 239 240 239 237 238 240 243 245 241 236 232 236 237 239 243 245 250 250 251 249 257 248 250 253 256 255 257 255 256 254 253 252 255 249 252 249
244 238 236 238 236 237 238 240 244 246 243 247 242 244 243 245 241 244 242 241 243 245 246 248 253 252 253 249 243 245 248 256 256 256 256 256 255 253 255 254 254 252 250
239 236 235 237 237 236 237 238 238 246 249 243 253 248 244 250 243 244 249 248 246 247 248 250 252 251 253 251 250 241 232 242 255 262 259 257 254 255 259 255 256 254 254
235 236 237 236 238 235 233 230 232 234 236 241 247 249 255 250 251 247 248 256 257 251 249 254 254 254 251 251 248 249 246 248 249 260 257 257 252 252 255 256 254 253 253
201 233 235 231 236 234 230 232 233 235 239 242 247 253 255 254 249 252 255 252 261 259 258 256 256 257 255 253 255 255 247 250 250 251 254 257 257 258 257 255 258 258 257
82 95 185 221 231 230 226 227 231 237 237 241 246 252 253 259 258 255 256 263 260 264 267 268 267 263 262 256 252 258 264 255 260 250 252 255 263 266 266 261 261 258 258
Wind_Speed_850mb
33 31 25 17 12 12 14 16 19 20 15 15 18 22 24 27 29 30 32 29 22 23 26 28 29 28 31 35 38 37 37 39 41 44 44 43 45 46 46 44 42 41 38
37 32 27 16 14 14 17 18 20 22 17 15 19 22 29 30 31 30 35 26 22 31 31 31 32 33 33 32 33 34 38 40 42 50 47 46 44 41 38 35 34 35 36
37 34 27 20 17 16 17 18 20 23 19 15 18 23 30 33 32 37 34 27 27 33 32 32 30 27 25 23 25 29 33 35 35 36 37 34 31 25 27 32 32 27 29
36 34 26 22 18 17 17 18 19 21 21 18 18 23 27 31 30 35 31 24 29 31 33 32 29 28 25 23 23 24 23 22 23 32 32 31 30 27 28 28 26 27 27
35 33 27 23 19 17 17 16 17 19 25 15 13 22 21 25 27 32 32 28 30 33 32 33 31 28 27 26 27 26 24 22 30 34 32 31 27 20 23 31 30 28 27
36 31 28 25 21 19 17 16 17 20 25 14 7 20 20 20 21 27 35 24 32 25 32 33 30 30 28 30 35 35 34 31 36 35 34 32 29 21 19 21 22 19 23
35 32 30 26 23 20 18 16 16 20 22 15 5 17 17 18 18 23 28 27 28 24 27 34 31 30 30 33 33 32 28 27 29 30 30 27 20 18 16 18 14 14 31
35 34 32 28 24 21 19 17 16 18 20 17 6 12 15 16 16 21 22 26 22 22 26 28 29 28 30 29 28 23 19 22 25 24 22 17 9 7 10 12 22 27 30
36 35 34 30 28 24 20 18 17 18 19 14 7 8 11 13 15 17 16 19 22 23 23 25 23 22 22 22 20 20 20 20 24 25 22 21 16 14 13 12 22 28 29
37 37 36 33 31 28 25 21 19 18 16 13 8 7 7 9 12 14 13 16 19 19 19 19 19 18 17 15 15 13 13 16 23 23 23 20 17 13 10 19 23 23 27
42 41 39 37 34 31 28 25 22 19 16 13 9 8 6 8 11 13 13 14 15 16 16 15 15 14 12 11 8 5 8 17 19 19 16 8 5 9 17 21 21 24 26
48 48 45 41 38 35 32 28 26 23 19 17 13 11 9 8 11 13 13 12 13 15 16 14 12 11 10 10 8 3 7 16 19 19 14 9 10 7 11 18 19 25 28
48 48 48 46 43 40 37 34 31 28 25 22 18 16 13 11 13 15 15 13 13 14 13 12 9 8 8 8 9 12 10 16 17 16 15 15 12 15 17 13 22 19 24
49 46 47 48 47 45 42 39 35 32 30 26 23 20 17 14 15 17 16 15 16 14 12 8 6 6 6 8 11 6 8 11 13 13 9 5 13 10 18 12 20 20 19
46 45 45 47 49 49 49 46 42 39 35 31 27 24 21 19 18 20 21 19 17 14 12 8 6 5 5 7 9 4 4 4 5 6 2 13 15 11 11 16 17 20 19
44 43 41 44 45 47 50 50 47 44 41 37 34 30 27 24 22 23 24 22 20 17 14 13 10 9 8 9 10 8 11 10 8 5 2 8 7 11 13 10 14 16 17
45 44 44 44 45 45 45 49 48 46 46 45 41 37 34 31 28 28 28 26 24 22 19 17 16 14 14 16 18 18 19 18 17 14 12 11 15 15 12 17 14 14 17
47 49 47 48 49 49 48 45 44 45 40 40 51 47 42 38 35 34 33 32 30 28 25 23 20 22 23 24 25 24 25 25 25 24 22 20 20 22 23 21 20 22 20
50 53 54 54 56 55 54 52 48 47 46 42 39 45 48 46 43 41 39 40 37 34 34 31 30 31 32 34 33 34 33 32 33 34 33 32 29 31 32 28 29 30 25
51 56 59 59 60 60 62 62 59 56 53 54 49 46 43 48 51 48 46 43 47 44 43 44 38 43 39 38 42 42 41 42 42 45 43 42 41 40 39 39 38 38 37
51 57 66 68 64 68 70 74 72 68 64 62 58 55 51 50 53 56 53 52 53 53 54 53 52 48 50 49 48 50 52 56 54 55 54 55 53 53 50 49 47 44 44
60 63 64 71 70 71 73 72 76 72 69 67 64 65 64 53 58 53 59 60 59 61 64 63 64 63 63 63 60 56 48 60 67 65 66 66 66 63 61 60 58 54 54
42 56 66 68 69 71 73 70 72 70 73 74 70 68 69 59 60 61 62 62 68 71 71 72 72 75 76 71 69 61 27 42 45 54 65 73 73 71 69 69 67 64 61
36 41 48 56 61 67 66 70 73 76 74 77 75 71 67 59 63 65 68 67 77 74 80 80 84 86 85 84 83 85 88 63 39 36 52 55 66 72 70 72 75 71 71
8 17 27 37 40 51 60 63 66 70 73 71 65 63 67 59 63 61 71 66 70 75 80 92 96 93 96 99 96 98 94 94 93 78 51 56 65 71 67 68 73 73 75
14 8 6 15 22 33 44 49 56 63 66 68 69 66 65 62 58 61 58 63 73 76 76 82 89 103 111 106 111 104 106 109 101 109 98 84 84 82 72 74 71 79 75
Wind_Direction_850mb
168 164 150 145 131 126 119 107 104 108 98 77 68 72 85 97 94 86 81 94 87 104 108 96 110 115 108 103 100 96 96 98 97 93 94 93 95 97 94 92 87 84 80
166 163 159 150 137 125 117 107 107 113 103 84 69 75 92 105 100 94 91 95 88 95 107 99 109 110 109 105 105 102 97 96 100 101 97 95 93 93 86 82 82 85 88
167 165 163 150 142 128 114 110 109 115 115 95 76 82 96 109 102 98 99 100 92 97 101 107 108 112 113 114 111 107 107 104 101 103 95 90 87 85 84 90 90 86 94
166 165 163 153 145 131 117 111 111 115 121 92 84 80 93 105 109 108 103 105 95 92 96 103 106 105 104 104 106 109 111 107 109 97 87 87 86 97 105 108 106 94 90
169 167 162 157 150 140 127 118 113 112 117 109 80 72 83 98 106 103 105 91 88 95 91 92 96 99 100 101 101 104 108 105 100 87 87 88 96 99 107 106 109 105 97
170 171 167 163 157 148 138 130 122 122 119 133 81 68 76 94 104 98 103 101 89 88 97 95 93 94 98 102 104 104 107 107 88 86 91 101 96 96 99 100 108 106 97
170 172 171 167 163 156 150 143 132 132 129 138 119 61 77 94 99 94 112 118 117 112 98 102 96 97 100 102 105 105 105 103 92 92 90 100 101 98 98 97 98 106 104
177 174 176 171 170 165 162 155 145 142 131 155 149 77 78 95 99 96 109 123 119 110 107 110 111 113 113 107 105 102 100 95 85 86 91 92 112 112 123 107 108 112 115
184 181 181 179 175 172 171 166 159 155 150 165 150 97 78 94 99 99 108 119 112 104 107 109 111 118 110 107 102 102 91 72 79 84 88 90 100 104 108 108 115 109 111
191 190 188 187 183 181 180 176 172 170 170 169 166 126 97 104 107 110 117 120 120 113 112 108 108 114 113 105 99 81 58 64 84 89 92 109 106 111 113 114 119 119 114
196 199 197 195 194 190 191 187 183 184 180 181 178 160 151 146 136 133 132 131 129 123 117 113 110 111 114 117 119 72 52 90 88 98 102 84 93 104 119 121 120 119 123
199 201 203 203 203 201 200 199 197 195 195 196 194 191 188 176 163 160 150 147 139 130 129 123 123 127 137 149 153 136 113 101 100 99 92 41 103 127 123 128 125 126 120
203 208 208 208 210 209 209 208 208 206 205 204 204 205 205 201 187 182 172 163 150 139 139 134 132 141 150 156 155 139 127 115 110 103 92 126 122 126 136 152 121 128 124
207 210 214 214 215 215 216 216 217 218 215 213 213 213 213 215 206 197 190 179 170 163 161 155 148 152 150 150 144 143 136 135 133 117 111 143 133 154 137 140 142 141 137
215 211 215 220 220 220 220 220 221 222 223 222 219 219 218 218 217 208 203 196 190 188 185 192 187 188 173 163 157 150 177 184 150 157 76 138 152 163 156 168 158 155 158
223 218 216 218 222 223 226 226 226 227 228 228 225 223 222 221 220 215 211 209 207 206 210 208 213 214 211 198 196 202 217 227 242 252 265 186 195 209 183 187 166 178 167
230 226 222 223 223 225 227 228 230 229 233 235 231 227 224 222 221 216 215 215 217 218 220 227 229 226 225 221 221 225 225 229 238 247 257 240 226 247 224 205 212 203 195
238 234 229 227 229 230 230 230 230 230 233 236 235 230 227 225 222 219 216 217 218 219 224 231 236 240 239 236 235 238 243 244 242 245 251 247 246 241 251 247 226 216 219
239 241 237 233 233 234 234 235 234 231 236 238 239 236 229 228 226 225 223 225 224 231 236 241 244 250 244 244 245 247 247 250 256 254 252 250 248 245 245 250 252 249 241
243 242 242 240 238 237 239 240 238 235 235 238 240 243 241 233 229 229 230 235 236 238 243 244 241 247 247 249 253 254 254 258 254 259 257 253 255 252 251 244 247 252 250
242 239 239 239 236 236 235 239 240 239 237 238 240 243 245 241 236 232 236 237 239 243 245 250 250 251 249 257 248 250 253 256 255 257 255 256 254 253 252 255 249 252 249
244 238 236 238 236 237 238 240 244 246 243 247 242 244 243 245 241 244 242 241 243 245 246 248 253 252 253 249 243 245 248 256 256 256 256 256 255 253 255 254 254 252 250
239 236 235 237 237 236 237 238 238 246 249 243 253 248 244 250 243 244 249 248 246 247 248 250 252 251 253 251 250 241 232 242 255 262 259 257 254 255 259 255 256 254 254
235 236 237 236 238 235 233 230 232 234 236 241 247 249 255 250 251 247 248 256 257 251 249 254 254 254 251 251 248 249 246 248 249 260 257 257 252 252 255 256 254 253 253
201 233 235 231 236 234 230 232 233 235 239 242 247 253 255 254 249 252 255 252 261 259 258 256 256 257 255 253 255 255 247 250 250 251 254 257 257 258 257 255 258 258 257
82 95 185 221 231 230 226 227 231 237 237 241 246 252 253 259 258 255 256 263 260 264 267 268 267 263 262 256 252 258 264 255 260 250 252 255 263 266 266 261 261 258 258